This demonstration page uses our WeatherBlox Daily Observations layout. Learn more.

Left ArrowRight Arrow

41.55636, -103.73856

Hourly Observations for April 8, 2020

Temp ( °F °C ) Dew Point ( °F °C ) Humidity (%) Winds ( mph kmh ) Pressure ( in mb ) Visibility ( mi km ) Precip ( " mm )
6:58 pm 18:58 Clear 66 18.7 19 -7.3 16 16 NW 22 35 29.83 1010 10 16 0.00 0.00
7:58 pm 19:58 Clear 61 16 20 -6.7 21 21 WNW 17 28 29.83 1010 10 16 0.00 0.00
8:58 pm 20:58 Clear 49 9.4 22 -5.6 35 35 W 13 20 29.88 1012 10 16 0.00 0.00
9:58 pm 21:58 Clear 49 9.4 22 -5.3 35 35 W 13 20 29.89 1012 10 16 0.00 0.00
10:58 pm 22:58 Clear 48 8.9 23 -4.9 38 38 W 9 15 29.88 1012 10 16 0.00 0.00
11:58 pm 23:58 Clear 48 9 24 -4.7 38 38 WNW 9 15 29.87 1012 10 16 0.00 0.00
12:58 am 00:58 Clear 44 6.5 25 -4 47 47 NNW 8 13 29.89 1012 10 16 0.00 0.00
1:58 am 01:58 Clear 43 6.1 26 -3.5 51 51 NNW 3 6 30.00 1016 10 16 0.00 0.00
2:58 am 02:58 Clear 46 7.7 25 -3.7 45 45 W 5 7 29.89 1012 10 16 0.00 0.00
3:58 am 03:58 Clear 42 5.5 26 -3.4 53 53 W 3 6 29.91 1013 10 16 0.00 0.00
4:58 am 04:58 Clear 39 4 26 -3.2 60 60 WNW 3 6 29.93 1014 10 16 0.00 0.00
5:58 am 05:58 Clear 40 4.2 26 -3.3 59 59 WNW 7 11 29.96 1015 10 16 0.00 0.00
6:58 am 06:58 Mostly Sunny 38 3.1 27 -3 65 65 WSW 6 9 29.99 1016 10 16 0.00 0.00
7:58 am 07:58 Sunny 47 8.1 29 -1.6 51 51 WNW 10 17 30.00 1016 10 16 0.00 0.00
8:58 am 08:58 Sunny 53 11.5 28 -2 39 39 NW 17 28 30.03 1017 10 16 0.00 0.00
9:58 am 09:58 Sunny 53 11.6 26 -3.5 35 35 N 14 22 30.06 1018 10 16 0.00 0.00
10:58 am 10:58 Sunny 53 11.8 27 -2.7 37 37 NE 10 17 30.10 1019 10 16 0.00 0.00
11:58 am 11:58 Sunny 54 12.4 28 -2.4 36 36 N 10 17 30.09 1019 10 16 0.00 0.00
12:58 pm 12:58 Mostly Sunny 55 12.7 28 -2.1 36 36 NE 8 13 30.10 1019 10 16 0.00 0.00
1:58 pm 13:58 Sunny 55 12.9 29 -1.6 37 37 NE 14 22 30.07 1018 10 16 0.00 0.00
2:58 pm 14:58 Sunny 57 13.8 27 -2.6 32 32 NNE 14 22 30.05 1018 10 16 0.00 0.00
3:58 pm 15:58 Sunny 56 13.4 26 -3.3 31 31 NNE 8 13 30.05 1018 10 16 0.00 0.00
4:58 pm 16:58 Sunny 57 13.9 27 -2.9 31 31 N 10 17 30.04 1017 10 16 0.00 0.00
5:58 pm 17:58 Sunny 56 13.3 26 -3.4 31 31 NNE 5 7 30.05 1018 10 16 0.00 0.00

Powered by AerisWeather